Location: Batesville
(34.7480°N, 83.6110°W)
Time: 22:27:08
(UTC-05:00)

Envisat - Pass Details

Date: 28 January 2018
Orbit: 764 x 766 km, 98.2° (Epoch: 17 February)

Event Time Altitude Azimuth Distance (km) Brightness Sun altitude
Exits shadow 18:49:38 11° 53° (NE) 2,212 4.8 -10.6°
Drops below altitude 10° 18:50:30 10° 43° (NE) 2,305 5.0 -10.7°
Sets 18:54:23 0° 13° (NNE) 3,236 6.0 -11.5°
